Location: Huberville
(49.5169°N, 1.4281°W)
Time: 12:54:53
(UTC+00:00)

Daily predictions for brighter satellites

Satellite Brightness Start Highest point End
(mag) Time Altitude Azimuth Time Altitude Azimuth Time Altitude Azimuth
Cosmos 1833 Rocket 3.0 17:27:06 10° NNW 17:32:33 47° NE 17:37:57 10° SE
Unknown 4.0 17:30:30 10° W 17:34:36 58° N 17:38:43 10° ENE
Unknown 4.0 17:33:51 10° W 17:37:58 57° N 17:42:03 10° ENE
Cosmos 2084 4.2 17:35:11 10° WSW 17:39:38 55° NW 17:44:01 10° NE
Unknown 4.0 17:35:34 10° W 17:39:40 56° N 17:43:46 10° ENE
AQUARIUS 4.5 17:35:30 10° S 17:39:59 75° WSW 17:44:31 10° NNW
Unknown 4.0 17:37:10 10° W 17:41:15 56° N 17:45:21 10° ENE
Cosmos 1328 3.8 17:37:59 10° N 17:41:57 60° ENE 17:45:50 10° SSE
Cosmos 1271 Rocket 3.6 17:38:16 10° NNW 17:42:12 58° W 17:46:09 10° S
Unknown 4.0 17:38:47 10° W 17:42:53 56° N 17:46:58 10° ENE
SMAP 3.6 17:39:13 10° S 17:43:49 64° WSW 17:48:28 10° NNW
SKYMED 2 4.3 17:39:54 10° NNE 17:43:51 33° E 17:47:48 10° SSE
Ariane Rocket 4.2 17:40:15 10° ESE 17:44:08 22° ENE 17:48:02 10° N
Cosmos 2228 3.0 17:39:56 10° S 17:44:17 87° E 17:48:39 10° N
Unknown 4.1 17:40:49 10° W 17:44:54 55° N 17:49:01 10° ENE
Unknown 4.0 17:41:59 10° W 17:46:04 56° N 17:50:10 10° ENE
YAOGAN 1 3.2 17:42:31 10° SE 17:46:27 35° ENE 17:50:24 10° N
Unknown 4.0 17:45:19 10° W 17:49:25 55° N 17:53:22 11° ENE
Unknown 4.1 17:47:00 10° W 17:51:05 55° N 17:54:58 11° ENE
Cosmos 921 Rocket 3.2 17:46:56 10° SSW 17:51:26 82° WNW 17:55:54 10° NNE
Unknown 4.1 17:48:54 10° W 17:52:58 54° N 17:56:46 12° ENE
Shenzhou-11 Module 4.3 17:51:18 10° SW 17:53:11 17° SSW 17:55:03 10° SSE
Cosmos 1300 4.3 17:51:31 10° ESE 17:53:49 15° E 17:56:07 10° NE
Cosmos 1726 Rocket 3.7 17:49:43 10° SSW 17:54:06 80° W 17:58:29 10° N
Unknown 4.1 17:50:21 10° W 17:54:25 54° N 17:58:10 12° ENE
Unknown 3.9 17:50:49 10° WNW 17:54:37 49° N 17:57:58 13° ENE
Cosmos 1939 Rocket 4.1 17:52:04 10° ESE 17:55:15 23° ENE 17:58:30 10° NNE
Abrixas rocket 2.9 17:52:26 10° SW 17:55:17 36° SSE 17:57:37 14° E
Unknown 4.1 17:51:58 10° W 17:56:03 54° N 17:59:43 12° ENE
Cosmos 489 Rocket 4.5 17:50:04 10° S 17:56:12 67° ESE 18:02:22 10° NNE
CZ-2D R/B 4.3 17:55:11 10° ESE 17:58:23 25° ENE 18:01:38 10° N
H-2A R/B 3.9 17:55:26 10° S 17:59:14 50° W 18:03:05 10° NNW
Unknown 4.1 17:55:22 10° W 17:59:27 53° N 18:02:58 13° ENE
Unknown 4.1 17:57:00 10° W 18:01:05 53° N 18:04:32 14° ENE
Unknown 4.1 17:58:42 10° W 18:02:46 53° N 18:06:09 14° ENE
Cosmos 1777 Rocket 4.1 17:57:40 10° NNW 18:02:54 86° WSW 18:08:07 10° SSE
Cosmos 2082 Rocket 2.3 17:57:50 10° NNW 18:03:30 56° NE 18:09:04 10° SE
Unknown 4.1 18:00:18 10° WNW 18:04:15 50° N 18:07:24 15° ENE
Unknown 4.1 18:00:21 10° W 18:04:25 52° N 18:07:43 15° ENE
BREEZE-M DEB (TANK) 3.7 18:00:26 10° WNW 18:04:38 79° SSW 18:15:49 10° ESE
CSL-04 Debris 4.2 17:59:23 10° SSE 18:04:45 60° ENE 18:10:09 10° N
Unknown 4.1 18:03:46 10° W 18:07:49 52° N 18:10:59 16° ENE
Cosmos 1242 Rocket 3.6 18:04:54 10° NNW 18:08:30 51° W 18:12:04 10° S
Unknown 4.1 18:04:49 10° W 18:08:53 52° N 18:11:59 16° ENE
ASTEX 1 3.3 18:04:30 10° N 18:09:30 77° E 18:14:29 10° S
Unknown 4.1 18:05:34 10° W 18:09:38 51° N 18:12:41 17° ENE
USA 116 4.0 18:07:08 10° NNE 18:10:04 31° E 18:13:12 10° SSE
Unknown 4.1 18:06:53 10° W 18:10:53 51° N 18:13:50 17° ENE
Unknown 4.1 18:07:17 10° W 18:11:21 51° N 18:14:20 17° ENE
Cosmos 1844 Rocket 3.9 18:08:40 10° WSW 18:14:00 42° NW 18:19:22 10° NNE
Unknown 4.1 18:10:25 10° W 18:14:29 51° N 18:17:21 18° ENE
Unknown 3.4 18:13:11 10° WNW 18:16:34 64° SSW 18:19:12 16° SE
Cosmos 1703 3.8 18:13:22 10° NNW 18:17:16 63° W 18:21:08 10° S
Unknown 4.1 18:13:43 10° W 18:17:47 51° N 18:20:30 19° ENE
Cosmos 1461 3.2 18:14:53 10° NW 18:18:56 68° SW 18:23:07 10° SSE
Unknown 4.1 18:15:25 10° W 18:19:28 51° N 18:22:08 20° ENE
Cosmos 2058 Rocket 3.5 18:15:50 10° SSW 18:20:09 65° WNW 18:24:31 10° N
COSMOS 2406 4.5 18:14:49 10° NW 18:20:17 45° WSW 18:25:41 10° S
Unknown 4.1 18:17:04 10° W 18:21:07 51° N 18:23:42 21° ENE
Unknown 4.1 18:18:44 10° WNW 18:22:48 51° N 18:25:18 21° ENE
Lacrosse 5 2.0 18:17:49 10° WNW 18:22:54 79° SW 18:27:30 13° SE
SJ 16-02 2.5 18:21:20 10° N 18:24:51 23° NE 18:25:44 21° ENE
FALCON 9 DEB 3.4 18:22:19 10° WNW 18:25:46 64° SSW 18:28:00 20° SE
CZ-4 R/B 1.6 18:21:50 10° S 18:26:02 77° WSW 18:30:17 10° NNW
ATLAS CENTAUR R/B 3.6 18:25:44 10° NNW 18:28:24 15° NNE 18:30:12 12° NE
Unknown 4.1 18:25:26 10° WNW 18:29:29 51° N 18:31:42 24° ENE
Unknown 4.1 18:27:08 10° WNW 18:31:12 51° N 18:33:20 25° ENE
COSMO-SKYMED 1 2.6 18:27:43 10° NNE 18:32:05 84° WNW 18:36:26 10° SSW
Unknown 4.1 18:28:43 10° WNW 18:32:47 51° N 18:34:51 26° ENE
Cosmos 2084 Rocket 3.4 18:28:35 10° NW 18:33:03 81° NE 18:36:06 20° SE
ATLAS 3B R/B 3.6 18:28:03 10° SSE 18:33:17 25° ESE 18:35:04 22° E
ATLAS 5 CENTAUR R/B 3.6 18:30:17 10° W 18:34:07 25° NNW 18:38:23 10° NNE
Unknown 4.1 18:30:26 10° WNW 18:34:29 51° N 18:36:29 27° ENE
Unknown 4.1 18:32:05 10° WNW 18:36:09 51° N 18:38:04 28° ENE
Cosmos 1726 3.6 18:33:15 10° SW 18:36:42 39° WNW 18:40:10 10° N
Cosmos 1908 3.8 18:33:57 10° SSW 18:37:49 61° WNW 18:41:41 10° N
Unknown 3.3 18:34:32 10° WNW 18:38:16 74° NNE 18:39:39 36° E
Unknown 4.1 18:35:25 10° WNW 18:39:28 51° N 18:41:16 29° ENE
Envisat 4.1 18:35:15 10° S 18:40:08 46° W 18:45:03 10° NNW
Falcon 9 debris 3.9 18:37:07 10° WNW 18:40:26 46° SSW 18:42:11 24° SSE
CENTAUR R/B 3.3 18:36:04 10° SSE 18:41:01 28° ESE 18:42:36 25° E
Unknown 3.6 18:37:36 10° WNW 18:41:04 58° SSW 18:42:37 29° SE
Starlink (trailer) 4.1 18:37:05 10° WNW 18:41:09 51° N 18:42:51 30° ENE
Cosmos 1339 Rocket 4.5 18:35:17 10° S 18:41:23 84° W 18:47:36 10° N
Unknown 4.1 18:38:47 10° WNW 18:42:51 51° N 18:44:29 31° ENE
Cosmos 1459 Rocket 4.1 18:37:25 10° N 18:43:32 54° ENE 18:49:41 10° SSE
H-2A R/B 3.1 18:42:58 26° ENE 18:43:46 27° ENE 18:48:13 10° N
Unknown 4.1 18:40:27 10° WNW 18:44:31 52° N 18:46:05 32° ENE
Cosmos 2061 Rocket 4.3 18:39:09 10° N 18:45:05 42° ENE 18:49:20 18° SE
Cosmos 2278 Rocket 2.3 18:40:06 10° SSW 18:45:47 80° WNW 18:51:31 10° NNE
Cosmos 1898 Rocket 3.6 18:42:04 10° NNW 18:47:15 53° ENE 18:50:02 26° SE
Cosmos 1766 Rocket 4.3 18:45:06 10° N 18:48:35 31° ENE 18:48:35 31° ENE
Unknown 4.0 18:45:08 10° WNW 18:49:11 52° N 18:50:31 36° ENE
Cosmos 2297 4.1 18:44:29 10° S 18:49:46 41° ESE 18:53:21 19° NE
Unknown 4.0 18:47:07 10° WNW 18:51:11 52° N 18:52:27 37° ENE
Unknown 4.0 18:49:06 10° WNW 18:53:11 53° N 18:54:23 38° ENE
EO 1 Delta rocket 4.4 18:49:09 10° S 18:53:44 63° W 18:58:53 10° NNW
Unknown 4.0 18:50:25 10° WNW 18:54:31 53° N 18:55:40 39° ENE
Unknown 4.0 18:52:08 10° WNW 18:56:13 53° N 18:57:15 41° NE
CSL-04 Rocket 4.4 18:51:12 10° S 18:56:38 57° WSW 19:02:02 10° NNW
Unknown 4.0 18:53:55 10° WNW 18:58:00 54° N 18:58:57 42° NE
Okean 3 Rocket 3.7 18:54:55 10° N 18:59:21 51° ENE 19:00:14 44° ESE
Cosmos 1076 Rocket 3.6 18:55:19 10° NNW 18:59:42 79° W 19:04:02 10° S
Unknown 4.0 18:57:14 10° WNW 19:01:19 54° N 19:02:08 45° NE
Unknown 4.0 18:57:18 10° WNW 19:01:23 54° N 19:02:12 45° NE
Unknown 4.3 18:59:22 10° WNW 19:02:40 38° SW 19:03:31 32° S
Unknown 3.9 18:58:46 10° WNW 19:02:52 54° N 19:03:37 46° NE
Resurs 01 Rocket 3.8 19:06:07 13° NNE 19:06:07 13° NNE 19:06:58 10° NNE
DMSP B5D1-3 4.4 18:59:56 10° NNE 19:05:06 85° ESE 19:10:15 10° SSW
ARGOS 3.7 19:05:13 35° ENE 19:05:23 35° ENE 19:10:17 10° N
Unknown 3.9 19:02:02 10° WNW 19:06:08 54° N 19:06:45 48° NE
USA 238 DEB 3.6 19:00:09 10° SW 19:06:52 84° SE 19:12:35 16° NE
USA 238 3.6 19:00:15 10° SW 19:06:59 84° SE 19:12:37 17° NE
Cosmos 1892 3.9 19:04:42 10° N 19:06:55 30° NNE 19:06:55 30° NNE
Cosmos 1727 Rocket 4.1 19:02:34 10° SSW 19:08:44 77° W 19:14:58 10° N
Unknown 3.8 19:05:25 10° WNW 19:09:31 55° N 19:09:59 52° NE
Cosmos 44 3.3 19:05:00 10° SSW 19:09:44 50° ESE 19:09:47 50° ESE
Cosmos 2058 2.9 19:06:01 10° NNW 19:10:16 83° W 19:13:00 21° S
Unknown 3.8 19:07:08 10° WNW 19:11:14 56° N 19:11:37 53° NE
Unknown 3.2 19:07:51 10° WNW 19:11:42 82° NNE 19:11:46 82° NE
Cosmos 2173 Rocket 3.9 19:05:38 10° N 19:11:56 84° E 19:18:07 10° S
Cosmos 1812 Rocket 4.0 19:08:15 10° SSW 19:12:39 63° WNW 19:17:06 10° N
Unknown 3.8 19:08:48 10° WNW 19:12:54 56° N 19:13:13 54° NNE
Unknown 3.8 19:10:29 10° WNW 19:14:35 57° N 19:14:50 55° NNE
Cosmos 1833 Rocket 4.3 19:11:19 10° NW 19:16:19 34° WSW 19:21:18 10° S
Unknown 3.8 19:13:49 10° WNW 19:17:56 58° N 19:18:02 57° NNE
Unknown 3.8 19:15:32 10° WNW 19:19:39 58° NNE 19:19:41 58° NNE
Cosmos 1802 Rocket 3.9 19:14:08 10° N 19:20:37 82° E 19:26:33 12° SSE
Unknown 3.8 19:17:07 10° WNW 19:21:12 59° N 19:21:12 59° N
Cosmos 2151 3.2 19:17:06 10° N 19:20:43 56° NNE 19:20:43 56° NNE
Ariane Rocket 3.4 19:17:36 10° S 19:22:40 64° WSW 19:27:46 10° NNW
Unknown 3.9 19:18:45 10° WNW 19:22:45 58° N 19:22:45 58° N
MOS 1 4.2 19:20:54 23° SSE 19:24:32 89° ENE 19:30:13 10° NNW
Unknown 3.9 19:20:48 10° WNW 19:24:45 59° N 19:24:45 59° N
Unknown 3.9 19:21:56 10° WNW 19:25:49 57° N 19:25:49 57° N
Cosmos 2123 Rocket 4.0 19:24:50 45° SE 19:26:08 52° E 19:32:11 10° NNE
HJ-1C 4.3 19:28:24 47° WNW 19:28:24 47° WNW 19:31:19 10° NNW
Cosmos 468 Rocket 3.9 19:23:12 10° S 19:28:19 66° ESE 19:28:19 66° ESE
Cosmos 1300 3.6 19:25:24 10° SSW 19:29:06 47° WNW 19:32:49 10° N
Unknown 4.0 19:25:16 10° WNW 19:29:01 57° NNW 19:29:01 57° NNW
NOSS 3-2 (A) 3.4 19:24:05 10° SW 19:29:57 84° NW 19:33:48 27° NE
Cosmos 1939 Rocket 4.2 19:26:12 10° SSW 19:29:58 39° W 19:33:50 10° NNW
Abrixas rocket 4.1 19:27:56 10° W 19:29:28 26° WSW 19:29:28 26° WSW
Unknown 4.0 19:26:56 10° WNW 19:30:37 56° NNW 19:30:37 56° NNW
Unknown 4.1 19:28:48 10° WNW 19:32:25 56° NNW 19:32:25 56° NNW
Cosmos 2233 Rocket 4.3 19:27:16 10° N 19:32:56 47° ENE 19:32:56 47° ENE
Unknown 4.0 19:29:35 10° WNW 19:32:44 56° WNW 19:32:44 56° WNW
SL-24 R/B 4.5 19:27:35 10° NNE 19:33:31 74° E 19:36:06 30° S
Cosmos 1000 Rocket 4.4 19:27:50 10° S 19:34:04 88° WNW 19:40:23 10° N
Unknown 4.1 19:30:17 10° WNW 19:33:49 54° NNW 19:33:49 54° NNW
Cosmos 1725 Rocket 3.9 19:28:12 10° N 19:34:30 71° ENE 19:36:08 50° SE
Unknown 4.2 19:31:53 10° WNW 19:35:22 53° NNW 19:35:22 53° NNW
CZ-2C R/B 3.8 19:38:10 43° NE 19:38:10 43° NE 19:42:43 10° N
Cosmos 1937 Rocket 3.4 19:33:45 10° NNW 19:38:56 85° WSW 19:39:25 73° S
Cosmos 990 Rocket 4.2 19:34:07 10° NNW 19:39:18 68° WSW 19:40:46 46° S
Cosmos 2100 Rocket 4.4 19:33:19 10° NNW 19:39:24 60° W 19:45:24 10° S
Unknown 4.3 19:35:17 10° WNW 19:38:37 51° NW 19:38:37 51° NW
Cosmos 858 Rocket 4.4 19:34:52 10° NNW 19:40:05 81° WSW 19:40:46 67° S
Unknown 4.4 19:36:54 10° WNW 19:40:11 50° NW 19:40:11 50° NW
Unknown 4.4 19:38:35 10° WNW 19:41:48 48° NW 19:41:48 48° NW
Unknown 4.5 19:39:42 10° WNW 19:42:42 47° NW 19:42:42 47° NW
Unknown 4.5 19:40:14 10° WNW 19:43:22 47° NW 19:43:22 47° NW
Cosmos 2082 Rocket 4.0 19:42:26 10° NW 19:47:16 29° WSW 19:52:02 10° SSW
Cosmos 2297 Rocket 4.5 19:46:37 10° N 19:48:09 11° NNE 19:48:12 11° NNE
ADEOS Rocket 3.3 19:43:04 10° NNE 19:50:45 66° E 19:57:48 10° S
NOSS 3-2 (C) 3.4 19:49:51 10° SW 19:55:45 85° NW 19:57:04 59° NE
Cosmos 2016 Rocket 4.2 19:50:27 10° NNW 19:56:42 69° W 20:00:06 29° S
SJ 16-02 2.5 19:59:27 10° NNW 20:02:46 41° WNW 20:02:46 41° WNW
Lacrosse 5 4.0 20:01:45 10° W 20:05:12 19° WSW 20:06:44 16° SSW
SPOT 3 Rocket 3.9 20:07:17 64° WNW 20:07:17 64° WNW 20:12:07 10° NNW
ATLAS CENTAUR R/B 3.5 20:04:23 10° NNW 20:06:23 23° NNW 20:06:23 23° NNW
Cosmos 1238 Rocket 4.3 20:03:29 10° N 20:08:47 55° NNE 20:08:47 55° NNE
ATLAS 5 CENTAUR R/B 4.1 20:17:06 10° NW 20:20:32 18° N 20:20:34 18° N
H-2A R/B 2.8 20:23:36 52° WNW 20:23:36 52° WNW 20:28:12 10° NNW
ATLAS 3B R/B 2.7 20:16:33 10° SW 20:22:24 69° WSW 20:22:24 69° WSW
Cosmos 2278 Rocket 4.5 20:26:38 10° W 20:30:48 20° NW 20:35:00 10° N
CENTAUR R/B 2.9 20:24:49 10° SW 20:29:52 61° WSW 20:29:52 61° WSW
Resurs 01 Rocket 4.3 20:43:42 15° NNW 20:43:42 15° NNW 20:44:28 10° NNW
ARGOS 4.5 20:46:44 36° WNW 20:46:44 36° WNW 20:50:43 10° NNW
